Regional Weather Roundup
Issued by NWS

Home | Current Version | Previous Version | Graphics & Text | Print | Product List | Glossary On
Versions: 1 2 3 4 5 6 7 8 9 10 11 12 13 14 15 16 17 18 19 20 21 22 23 24 25 26 27 28 29 30 31 32 33 34 35 36 37 38 39 40 41 42 43 44 45 46 47 48 49 50
942
ASUS43 KBIS 131510
RWRND

NORTH DAKOTA REGIONAL WEATHER ROUNDUP
NATIONAL WEATHER SERVICE BISMARCK ND
900 AM CST SAT FEB 13 2016

NOTE: "FAIR" INDICATES FEW OR NO CLOUDS BELOW 12,000 FEET WITH NO
SIGNIFICANT WEATHER AND/OR OBSTRUCTIONS TO VISIBILITY.


NDZ001>003-009>011-017-131600-
NORTHWEST NORTH DAKOTA

CITY           SKY/WX    TMP DP  RH WIND       PRES   REMARKS
WILLISTON      CLOUDY    14   9  80 SE10      30.02F WCI   1
MINOT          CLOUDY    13   0  56 SE17G24   30.17F WCI  -4
MINOT AFB      CLOUDY    11   3  70 SE17G24   30.17F WCI  -7
$$

NDZ018>021-031>035-040>046-131600-
SOUTHWEST NORTH DAKOTA

CITY           SKY/WX    TMP DP  RH WIND       PRES   REMARKS
BISMARCK       CLOUDY    11  -2  56 SE15      30.25F WCI  -5
DICKINSON      LGT SNOW  10   7  87 S23G29    29.99F VSB 1   WCI -10
GARRISON         N/A      9   2  73 S22       30.16F WCI -11
HETTINGER ARPT FOG       13  11  92 SE15G23   30.06F VSB 1   WCI  -3
$$

NDZ004>008-012>016-024-026-027-054-131600-
NORTHEAST NORTH DAKOTA

CITY           SKY/WX    TMP DP  RH WIND       PRES   REMARKS
GRAND FORKS    CLOUDY    -5 -13  68 S10       30.54F WCI -23
GRND FRKS AFB  CLOUDY    -6 -13  72 S10       30.51F WCI -23
DEVILS LAKE    CLOUDY    -6 -12  75 SE10      30.36F WCI -24
$$

NDZ022-023-025-028>030-036>039-047>053-131600-
SOUTHEAST NORTH DAKOTA

CITY           SKY/WX    TMP DP  RH WIND       PRES   REMARKS
FARGO          CLOUDY    -2  -9  72 SE12      30.54F WCI -20
JAMESTOWN      CLOUDY     0  -9  65 SE16      30.37F WCI -20
$$





USA.gov is the U.S. government's official web portal to all federal, state and local government web resources and services.